EW1243 Weather Reports


time (UTC)temp
C
wind
direction
speed
KPH
gust
KPH
rain 1hr
cm
rain 24hr
cm
rain mn
cm
humidity
%
barometer
mb
20260510180023 7 125 0.0 4.8 0.00 0.00 0.00 91 1032.6
20260510174523 7 125 0.0 0.0 0.00 0.00 0.00 92 1032.5
20260510173023 7 125 0.0 1.6 0.00 0.00 0.00 93 1032.4
20260510171554 7 125 0.0 3.2 0.00 0.00 0.00 92 1032.3
20260510170154 7 125 1.6 4.8 0.00 0.00 0.00 92 1032.3
20260510164601 7 125 0.0 0.0 0.00 0.00 0.00 92 1032.3
20260510163054 7 125 0.0 0.0 0.00 0.00 0.00 92 1032.3
20260510161553 7 125 0.0 3.2 0.00 0.00 0.00 92 1032.5
20260510160050 7 125 0.0 0.0 0.00 0.00 0.00 93 1032.6
20260510154554 7 125 0.0 0.0 0.00 0.00 0.00 93 1032.6
20260510153049 7 125 0.0 0.0 0.00 0.00 0.00 92 1032.8
20260510151551 7 125 0.0 0.0 0.00 0.00 0.00 92 1032.8
20260510150056 7 125 0.0 0.0 0.00 0.00 0.00 91 1032.8
20260510144603 7 125 0.0 0.0 0.00 0.00 0.00 91 1032.9
20260510143040 8 125 0.0 0.0 0.00 0.00 0.00 91 1033.0
20260510141538 8 125 0.0 0.0 0.00 0.00 0.00 91 1033.1
20260510140035 8 125 0.0 3.2 0.00 0.00 0.00 90 1033.1
20260510134534 8 125 0.0 0.0 0.00 0.00 0.00 90 1033.0
20260510133043 9 125 0.0 0.0 0.00 0.00 0.00 89 1032.9
20260510131536 10 125 0.0 0.0 0.00 0.00 0.00 89 1033.0
20260510130033 10 125 0.0 0.0 0.00 0.00 0.00 89 1033.1
20260510124532 10 125 0.0 4.8 0.00 0.00 0.00 89 1033.1
20260510123032 10 125 0.0 1.6 0.00 0.00 0.00 89 1033.3
20260510121532 10 125 0.0 0.0 0.00 0.00 0.00 87 1033.3
20260510120031 10 125 0.0 0.0 0.00 0.00 0.00 87 1033.2
20260510114549 11 125 0.0 0.0 0.00 0.00 0.00 86 1033.2
20260510113039 11 125 0.0 3.2 0.00 0.00 0.00 86 1033.2
20260510111532 11 125 0.0 0.0 0.00 0.00 0.00 84 1032.9
20260510110034 12 125 0.0 6.4 0.00 0.00 0.00 84 1032.8
20260510104523 12 70 0.0 6.4 0.00 0.00 0.00 83 1032.6
20260510103023 12 65 3.2 14.5 0.00 0.00 0.00 82 1032.5
20260510101522 12 70 3.2 17.7 0.00 0.00 0.00 82 1032.6
20260510100030 12 67 0.0 14.5 0.00 0.00 0.00 81 1032.4
20260510094524 13 103 3.2 9.7 0.00 0.00 0.00 80 1032.2
20260510093018 13 96 0.0 12.9 0.00 0.00 0.00 79 1032.2
20260510091515 13 125 0.0 6.4 0.00 0.00 0.00 78 1032.0
20260510090015 13 125 0.0 3.2 0.00 0.00 0.00 77 1031.6
20260510084511 14 126 1.6 9.7 0.00 0.00 0.00 76 1031.2
20260510083015 15 109 4.8 17.7 0.00 0.00 0.00 73 1030.9
20260510081508 15 105 3.2 14.5 0.00 0.00 0.00 69 1030.5
20260510080007 15 42 4.8 14.5 0.00 0.00 0.00 66 1030.1
20260510074507 16 36 0.0 0.0 0.00 0.00 0.00 61 1029.9
20260510073008 16 36 0.0 0.0 0.00 0.00 0.00 58 1029.5
20260510071506 17 36 0.0 3.2 0.00 0.00 0.00 56 1029.3
20260510070006 18 35 0.0 6.4 0.00 0.00 0.00 55 1029.1
20260510064504 18 35 0.0 4.8 0.00 0.00 0.00 54 1028.8
20260510063004 18 36 0.0 9.7 0.00 0.00 0.00 52 1028.7
20260510061504 19 46 3.2 9.7 0.00 0.00 0.00 51 1028.6
20260510060104 19 46 3.2 6.4 0.00 0.00 0.00 50 1028.5
20260510060002 19 46 1.6 6.4 0.00 0.00 0.00 51 1028.4
20260510054606 20 44 0.0 8.0 0.00 0.00 0.00 50 1028.4
20260510054502 20 44 0.0 8.0 0.00 0.00 0.00 50 1028.4
20260510053059 20 24 0.0 8.0 0.00 0.00 0.00 50 1028.3
20260510051558 20 20 3.2 12.9 0.00 0.00 0.00 50 1028.3
20260510044606 20 346 4.8 9.7 0.00 0.00 0.00 51 1028.2
20260510043059 20 319 3.2 14.5 0.00 0.00 0.00 51 1028.2
20260510041558 20 291 3.2 12.9 0.00 0.00 0.00 52 1028.3
20260510040055 20 292 0.0 8.0 0.00 0.00 0.00 52 1028.4
20260510034553 19 304 0.0 9.7 0.00 0.00 0.00 53 1028.5
20260510033115 19 302 3.2 12.9 0.00 0.00 0.00 54 1028.5
20260510031604 18 317 0.0 4.8 0.00 0.00 0.00 55 1028.6
20260510030050 18 319 1.6 8.0 0.00 0.00 0.00 57 1028.8
20260510024548 18 327 0.0 6.4 0.00 0.00 0.00 56 1029.0
20260510023046 18 327 0.0 8.0 0.00 0.00 0.00 57 1029.4
20260510021544 18 329 1.6 9.7 0.00 0.00 0.00 58 1029.7
20260510020041 17 306 1.6 9.7 0.00 0.00 0.00 60 1030.0
20260510014538 17 292 3.2 8.0 0.00 0.00 0.00 60 1030.1
20260510013040 16 292 0.0 0.0 0.00 0.00 0.00 62 1030.4
20260510011534 16 291 0.0 0.0 0.00 0.00 0.00 64 1030.5
20260510010028 15 291 0.0 0.0 0.00 0.00 0.00 65 1030.6
20260510004524 15 292 0.0 0.0 0.00 0.00 0.00 66 1030.7
20260510003022 14 291 0.0 0.0 0.00 0.00 0.00 67 1030.7
20260510001533 13 291 0.0 0.0 0.00 0.00 0.00 69 1030.8
20260510000015 13 291 0.0 0.0 0.00 0.00 0.00 71 1030.8
20260509234514 12 291 0.0 0.0 0.00 0.00 0.00 73 1030.9
20260509233008 11 291 0.0 0.0 0.00 0.00 0.00 75 1030.8
20260509231506 11 291 0.0 0.0 0.00 0.00 0.00 79 1030.9
20260509230107 9 291 0.0 0.0 0.00 0.00 0.00 82 1031.0
20260509224554 8 291 0.0 0.0 0.00 0.00 0.00 85 1031.0
20260509223057 7 291 0.0 0.0 0.00 0.00 0.00 88 1030.9
20260509221549 6 291 0.0 0.0 0.00 0.00 0.00 93 1030.8
20260509220055 5 291 0.0 0.0 0.00 0.00 0.00 94 1030.7
20260509214542 3 291 0.0 0.0 0.00 0.00 0.00 94 1030.6
20260509213040 2 291 0.0 0.0 0.00 0.00 0.00 94 1030.4
20260509211539 -17 0.0 0.0 0.00 0.00 0.00 1030.1
20260509210033 -17 0.0 0.0 0.00 0.00 0.00 1029.9
20260509204532 -17 0.0 0.0 0.00 0.00 0.00 1029.7
20260509203020 -17 0.0 0.0 0.00 0.00 0.00 1029.5
20260509201517 -17 0.0 0.0 0.00 0.00 0.00 1029.5
20260509200013 -17 0.0 0.0 0.00 0.00 0.00 1029.3
20260509194509 -17 0.0 0.0 0.00 0.00 0.00 1029.2
20260509193004 2 291 0.0 0.0 0.00 0.00 0.00 93 1029.1
20260509191503 2 291 0.0 0.0 0.00 0.00 0.00 93 1028.8
20260509190107 2 291 0.0 0.0 0.00 0.00 0.00 93 1028.6
20260509184600 2 291 0.0 0.0 0.00 0.00 0.00 93 1028.5
20260509183059 2 291 0.0 0.0 0.00 0.00 0.00 93 1028.3
20260509181603 2 291 0.0 0.0 0.00 0.00 0.00 93 1028.2